Regional Weather Roundup
Issued by NWS

Home | Current Version | Previous Version | Text Only | Print | Product List | Glossary On
Versions: 1 2 3 4 5 6 7 8 9 10 11 12 13 14 15 16 17 18 19 20 21 22 23 24 25 26 27 28 29 30 31 32 33 34 35 36 37 38 39 40 41 42 43 44 45 46 47 48 49 50
000
ASUS44 KMEG 180710
RWRTN
TENNESSEE HOURLY STATE WEATHER ROUNDUP
NATIONAL WEATHER SERVICE MEMPHIS TN
100 AM CST MON DEC 18 2017

TNZ002-004-019-021-049-052-054-088>092-180800-
WEST TENNESSEE

CITY           SKY/WX    TMP DP  RH WIND       PRES   REMARKS
MEMPHIS INTL   CLOUDY    46  45  96 SW8       30.14R
NWS MEMPHIS      N/A     47 N/A N/A MISG        N/A
JACKSON        CLOUDY    47  47 100 SW3       30.13F
DYERSBURG      CLOUDY    45  44  97 SW3       30.14F FOG
SOMERVILLE     CLOUDY    46  46 100 SW3       30.12R FOG
COVINGTON      CLOUDY    46  46 100 CALM      30.13F FOG
UNION CITY     CLOUDY    45  45 100 CALM      30.12F FOG
BOLIVAR        CLOUDY    46  45  93 CALM      30.13R
PARIS          CLOUDY    45  45 100 SW5       30.12S FOG
HUNTINGDON     CLOUDY    46  46 100 CALM      30.12S FOG
LEXINGTON      FOG       46  46 100 CALM      30.13S VSB 1/4
SELMER         CLOUDY    46  46 100 CALM      30.12R FOG
SAVANNAH       CLOUDY    48  46  93 CALM      30.12S FOG
$$

TNZ008-025-027-028-033-062-065-066-180800-
NORTH MIDDLE TENNESSEE

CITY           SKY/WX    TMP DP  RH WIND       PRES   REMARKS
NASHVILLE      CLOUDY    47  46  97 S5        30.14S FOG
PORTLAND       FOG       45  45 100 S5        30.12S VSB 1
CLARKSVILLE    CLOUDY    46  43  89 SW6       30.13S FOG
SMYRNA         CLOUDY    46  46 100 S3        30.15F FOG
COOKEVILLE     FOG       46  45  93 CALM      30.13S VSB 1
GALLATIN       FOG       45  45 100 CALM      30.16S VSB 1/2
CROSSVILLE     CLOUDY    43  42  97 CALM      30.13S FOG
$$

TNZ061-075-076-078-094-096-097-180800-
SOUTH MIDDLE TENNESSEE

CITY           SKY/WX    TMP DP  RH WIND       PRES   REMARKS
FAYETTEVILLE   FOG       46  46 100 CALM      30.13F VSB 1/2
TULLAHOMA      FOG       46  46 100 CALM      30.14R VSB 1/2
WINCHESTER     CLOUDY    45  45 100 SE5       30.15S
MCMINNVILLE    FOG       46  46 100 CALM      30.14S VSB 1/2
COLUMBIA       CLOUDY    46  46 100 CALM      30.11F FOG
SHELBYVILLE    CLOUDY    46  46 100 S3        30.14S FOG
$$

TNZ017-018-042-046-047-180800-
NORTHEAST TENNESSEE

CITY           SKY/WX    TMP DP  RH WIND       PRES   REMARKS
TRI CITIES     FOG       39  39 100 CALM      30.17S VSB 3/4
ELIZABETHTON   CLOUDY    39  39 100 CALM      30.17S FOG
$$

TNZ012-013-036-069-073-074-180800-
CENTRAL EAST TENNESSEE

CITY           SKY/WX    TMP DP  RH WIND       PRES   REMARKS
KNOXVILLE      FOG       40  40 100 CALM      30.15F VSB 1
OAK RIDGE      CLOUDY    42  42 100 CALM      30.18F FOG
DOWNTOWN KNOXV   N/A     41  41 100 CALM      30.18S FOG
GATLINBURG     CLOUDY    39  39 100 CALM      30.16F FOG
MORRISTOWN     FOG       39  39 100 CALM      30.15F VSB 1
JACKSBORO      CLOUDY    41  41 100 CALM      30.19S FOG
$$

TNZ083-085-099-180800-
SOUTHEAST TENNESSEE

CITY           SKY/WX    TMP DP  RH WIND       PRES   REMARKS
CHATTANOOGA    FOG       43  42  97 CALM      30.17S VSB 1/2
DAYTON         FOG       43  43 100 CALM      30.16F VSB 3/4
$$

SKY/WX REPORTED AS FAIR MEANS FEW OR NO CLOUDS BELOW
12 THOUSAND FEET.




USA.gov is the U.S. government's official web portal to all federal, state and local government web resources and services.